Weather History for Gulf Shores, AL

Change the Weather History Date:

Thursday, June 20, 2013

  Actual Average (KPNS) Record (KPNS)
Temperature  
Mean Temperature 78 °F 81 °F  
Max Temperature 86 °F 89 °F 99 °F (1933)
Min Temperature 71 °F 73 °F 65 °F (1965)
Cooling Degree Days 14 16  
Month to date cooling degree days 298  
Year to date cooling degree days 746  
Since 1 June cooling degree days 298  
Growing Degree Days 28 (Base 50)    
Moisture  
Dew Point 70 °F    
Average Humidity 77    
Maximum Humidity 94    
Minimum Humidity 58    
Precipitation  
Precipitation 0.14 in 0.24 in 5.80 in (1961)
Month to date precipitation 4.11  
Year to date precipitation 28.11  
Sea Level Pressure  
Sea Level Pressure 30.07 in    
Wind  
Wind Speed 2 mph (ENE)    
Max Wind Speed 12 mph    
Max Gust Speed -    
Visibility 9 miles    
Events Rain , Thunderstorm    
T = Trace of Precipitation, MM = Missing Value Source: NWS Daily Summary

Daily Weather History Graph

Daily Weather History Graph

Search for Another Location

Airport:

Trip Planner

Search our weather history database for the weather conditions in past years. The results will help you decide how hot, cold, wet, or windy it might be!

Date:

Astronomy

Jun. 20, 2013 Rise Set
Actual Time 5:49 AM CDT 7:55 PM CDT
Civil Twilight 5:21 AM CDT 8:23 PM CDT
Nautical Twilight 4:48 AM CDT 8:56 PM CDT
Astronomical Twilight 4:12 AM CDT 9:32 PM CDT
Moon 5:04 PM CDT (6/20) 3:06 AM CDT (6/20)
Length of Visible Light 15h 01m
Length of Day
14h 06m
Waxing Gibbous, 89% of the Moon is Illuminated
Jun 20
Waxing Gibbous
Jun 23
Full
Jun 29
Last Quarter
Jul 8
New
Jul 15
First Quarter

Hourly Weather History & Observations

Time (CDT) Temp. Heat Index Dew Point Humidity Pressure Visibility Wind Dir Wind Speed Gust Speed Precip Events Conditions
12:15 AM 73.4 °F - 69.8 °F 88% 30.04 in 10.0 mi Calm Calm - N/A   Clear
12:35 AM 73.4 °F - 69.8 °F 88% 30.04 in 7.0 mi Calm Calm - N/A   Clear
12:55 AM 73.4 °F - 69.8 °F 88% 30.04 in 7.0 mi Calm Calm - N/A   Clear
1:15 AM 73.4 °F - 69.8 °F 88% 30.03 in 10.0 mi Calm Calm - N/A   Clear
1:35 AM 73.4 °F - 69.8 °F 88% 30.03 in 7.0 mi Calm Calm - N/A   Clear
1:55 AM 73.4 °F - 69.8 °F 88% 30.02 in 7.0 mi Calm Calm - N/A   Clear
2:15 AM 71.6 °F - 69.8 °F 94% 30.02 in 7.0 mi Calm Calm - N/A   Clear
2:35 AM 73.4 °F - 69.8 °F 88% 30.02 in 7.0 mi Calm Calm - N/A Thunderstorm Clear
2:55 AM 73.4 °F - 69.8 °F 88% 30.02 in 7.0 mi Calm Calm - N/A   Clear
3:15 AM 73.4 °F - 69.8 °F 88% 30.02 in 5.0 mi Calm Calm - N/A   Clear
3:35 AM 73.4 °F - 69.8 °F 88% 30.02 in 5.0 mi Calm Calm - N/A   Scattered Clouds
3:55 AM 75.2 °F - 71.6 °F 89% 30.03 in 10.0 mi NW 3.5 mph - N/A   Scattered Clouds
4:15 AM 75.2 °F - 69.8 °F 83% 30.03 in 10.0 mi Calm Calm - N/A   Mostly Cloudy
4:35 AM 73.4 °F - 69.8 °F 88% 30.03 in 10.0 mi Calm Calm - N/A   Overcast
4:55 AM 73.4 °F - 69.8 °F 88% 30.03 in 10.0 mi North 3.5 mph - N/A   Overcast
5:15 AM 73.4 °F - 69.8 °F 88% 30.03 in 10.0 mi Calm Calm - N/A   Mostly Cloudy
5:35 AM 73.4 °F - 69.8 °F 88% 30.04 in 10.0 mi Calm Calm - N/A Thunderstorm Mostly Cloudy
5:55 AM 73.4 °F - 69.8 °F 88% 30.04 in 10.0 mi Calm Calm - N/A Thunderstorm Scattered Clouds
6:15 AM 73.4 °F - 69.8 °F 88% 30.05 in 10.0 mi Calm Calm - N/A Thunderstorm Clear
6:35 AM 73.4 °F - 69.8 °F 88% 30.06 in 10.0 mi North 4.6 mph - N/A   Clear
6:55 AM 77.0 °F - 69.8 °F 78% 30.07 in 10.0 mi Calm Calm - N/A   Clear
7:15 AM 77.0 °F - 69.8 °F 78% 30.07 in 10.0 mi Calm Calm - N/A   Clear
7:35 AM 78.8 °F - 69.8 °F 74% 30.08 in 10.0 mi Calm Calm - N/A   Clear
7:55 AM 78.8 °F - 69.8 °F 74% 30.09 in 10.0 mi North 3.5 mph - N/A   Clear
8:15 AM 80.6 °F 83.9 °F 69.8 °F 70% 30.09 in 10.0 mi Calm Calm - N/A   Scattered Clouds
8:35 AM 80.6 °F 83.9 °F 69.8 °F 70% 30.09 in 10.0 mi Calm Calm - N/A   Scattered Clouds
8:55 AM 80.6 °F 83.9 °F 69.8 °F 70% 30.10 in 10.0 mi North 4.6 mph - N/A   Mostly Cloudy
9:15 AM 82.4 °F 86.3 °F 69.8 °F 66% 30.10 in 10.0 mi North 3.5 mph - N/A   Scattered Clouds
9:35 AM 82.4 °F 85.4 °F 68.0 °F 62% 30.10 in 10.0 mi Calm Calm - N/A   Scattered Clouds
9:55 AM 84.2 °F 88.4 °F 69.8 °F 62% 30.10 in 10.0 mi NNE 6.9 mph - N/A   Overcast
10:15 AM 82.4 °F 85.4 °F 68.0 °F 62% 30.10 in 10.0 mi NW 4.6 mph - N/A   Mostly Cloudy
10:35 AM 82.4 °F 85.4 °F 68.0 °F 62% 30.10 in 10.0 mi Calm Calm - N/A   Mostly Cloudy
10:55 AM 82.4 °F 85.4 °F 68.0 °F 62% 30.10 in 10.0 mi North - - N/A   Overcast
11:15 AM 84.2 °F 88.4 °F 69.8 °F 62% 30.10 in 10.0 mi Calm Calm - N/A   Overcast
11:35 AM 82.4 °F 86.3 °F 69.8 °F 66% 30.10 in 10.0 mi South 6.9 mph - N/A   Overcast
11:55 AM 82.4 °F 86.3 °F 69.8 °F 66% 30.10 in 10.0 mi South 6.9 mph - N/A   Overcast
12:15 PM 82.4 °F 86.3 °F 69.8 °F 66% 30.10 in 10.0 mi SSE 8.1 mph - N/A   Overcast
12:35 PM 77.0 °F - 69.8 °F 78% 30.10 in 2.5 mi South 5.8 mph - 0.11 in Rain Light Rain
12:55 PM 78.8 °F - 71.6 °F 78% 30.10 in 10.0 mi SSE 6.9 mph - 0.11 in   Overcast
1:15 PM 80.6 °F 84.6 °F 71.6 °F 74% 30.09 in 10.0 mi South 3.5 mph - N/A   Mostly Cloudy
1:35 PM 82.4 °F 87.2 °F 71.6 °F 70% 30.08 in 10.0 mi SE 5.8 mph - N/A   Clear
1:55 PM 84.2 °F 89.6 °F 71.6 °F 66% 30.08 in 10.0 mi South 5.8 mph - N/A   Clear
2:15 PM 84.2 °F 88.4 °F 69.8 °F 62% 30.07 in 10.0 mi SE 8.1 mph - N/A   Clear
2:35 PM 86.0 °F 90.4 °F 69.8 °F 58% 30.06 in 10.0 mi South 4.6 mph - N/A   Scattered Clouds
2:55 PM 86.0 °F 90.4 °F 69.8 °F 58% 30.06 in 10.0 mi SSW 6.9 mph - N/A   Mostly Cloudy
3:15 PM 86.0 °F 90.4 °F 69.8 °F 58% 30.05 in 10.0 mi SSE 6.9 mph - N/A   Scattered Clouds
3:35 PM 82.4 °F 86.3 °F 69.8 °F 66% 30.06 in 10.0 mi South 4.6 mph - N/A   Mostly Cloudy
3:55 PM 80.6 °F 83.2 °F 68.0 °F 65% 30.06 in 10.0 mi WNW 3.5 mph - N/A Rain , Thunderstorm Light Thunderstorms and Rain
4:15 PM 80.6 °F 83.9 °F 69.8 °F 70% 30.06 in 10.0 mi WNW 5.8 mph - N/A Rain , Thunderstorm Light Thunderstorms and Rain
4:35 PM 78.8 °F - 71.6 °F 78% 30.07 in 10.0 mi West 11.5 mph - N/A Rain , Thunderstorm Light Thunderstorms and Rain
4:55 PM 73.4 °F - 69.8 °F 88% 30.06 in 10.0 mi SSW 4.6 mph - 0.02 in Rain Light Rain
5:15 PM 75.2 °F - 71.6 °F 89% 30.06 in 10.0 mi SW 5.8 mph - 0.01 in Thunderstorm Scattered Clouds
5:35 PM 78.8 °F - 69.8 °F 74% 30.05 in 10.0 mi SW 10.4 mph - 0.01 in   Clear
5:55 PM 78.8 °F - 69.8 °F 74% 30.05 in 10.0 mi West 4.6 mph - 0.01 in   Clear
6:15 PM 78.8 °F - 69.8 °F 74% 30.04 in 10.0 mi Calm Calm - N/A   Clear
6:35 PM 78.8 °F - 69.8 °F 74% 30.04 in 10.0 mi West 4.6 mph - N/A   Clear
6:55 PM 78.8 °F - 71.6 °F 78% 30.05 in 10.0 mi West 3.5 mph - N/A   Clear
7:15 PM 78.8 °F - 71.6 °F 78% 30.05 in 10.0 mi Calm Calm - N/A   Clear
7:35 PM 78.8 °F - 71.6 °F 78% 30.05 in 10.0 mi Calm Calm - N/A   Clear
7:55 PM 77.0 °F - 71.6 °F 83% 30.06 in 10.0 mi Calm Calm - N/A   Clear
8:15 PM 77.0 °F - 71.6 °F 83% 30.06 in 10.0 mi NNE 3.5 mph - N/A   Clear
8:35 PM 77.0 °F - 71.6 °F 83% 30.07 in 10.0 mi Calm Calm - N/A   Clear
8:55 PM 75.2 °F - 71.6 °F 89% 30.07 in 7.0 mi NE 3.5 mph - N/A   Clear
9:15 PM 77.0 °F - 71.6 °F 83% 30.08 in 10.0 mi NNE 4.6 mph - N/A   Scattered Clouds
9:35 PM 77.0 °F - 71.6 °F 83% 30.09 in 10.0 mi NE 3.5 mph - N/A   Mostly Cloudy
9:55 PM 77.0 °F - 69.8 °F 78% 30.09 in 10.0 mi NNE 4.6 mph - N/A   Scattered Clouds
10:15 PM 77.0 °F - 69.8 °F 78% 30.09 in 10.0 mi NE 3.5 mph - N/A   Mostly Cloudy
10:35 PM 77.0 °F - 69.8 °F 78% 30.09 in 10.0 mi Calm Calm - N/A   Overcast
10:55 PM 77.0 °F - 69.8 °F 78% 30.09 in 10.0 mi Calm Calm - N/A   Scattered Clouds
11:15 PM 75.2 °F - 69.8 °F 83% 30.09 in 10.0 mi NE 3.5 mph - N/A   Clear
11:35 PM 75.2 °F - 69.8 °F 83% 30.09 in 10.0 mi ENE 4.6 mph - N/A   Clear
11:55 PM 75.2 °F - 68.0 °F 78% 30.09 in 10.0 mi ENE 4.6 mph - N/A   Clear